Simultaneous Nadir Overpasses (SNOs) Predictions

Prediction of SNOs between NOAA-20 and AQUA Satellite Orbit:

Table of predicted SNOs for the next 14.0 days since TLE Epoch: 3/23/2024
Index Date (NOAA-20) Time (NOAA-20) Lat,Lon (NOAA-20) SZA (NOAA-20 ) Date (AQUA) Time (AQUA) Lat,Lon (AQUA) SZA (AQUA ) Distance(km) Time Diff (sec)
1 03/23/2024 15:57:38 81.20,-138.25 87.16 03/23/2024 15:58:21 81.20,-138.34 87.14 1.44 43
2 03/23/2024 16:48:22 -81.21, 29.27 92.89 03/23/2024 16:47:44 -81.21, 29.43 92.89 2.76 38
3 03/26/2024 07:19:18 -81.20, 171.13 93.87 03/26/2024 07:20:27 -81.20, 171.01 93.90 2.03 69
4 03/26/2024 08:09:55 81.21, -21.08 86.05 03/26/2024 08:09:48 81.22, -20.96 86.04 2.21 7
5 03/28/2024 23:31:35 -81.21, -71.46 95.01 03/28/2024 23:31:53 -81.21, -71.57 95.00 1.90 18
6 03/29/2024 00:22:12 81.23, 96.38 84.91 03/29/2024 00:21:14 81.23, 96.42 84.94 0.80 58
7 03/31/2024 14:53:09 81.21,-121.92 83.96 03/31/2024 14:53:54 81.21,-121.98 83.95 1.09 45
8 03/31/2024 15:43:52 -81.22, 45.83 96.12 03/31/2024 15:43:17 -81.22, 45.84 96.10 0.27 35
9 04/03/2024 06:14:49 -81.20,-172.64 97.03 04/03/2024 06:15:55 -81.21,-172.52 97.09 2.12 66
10 04/03/2024 07:05:26 81.22, -4.64 82.87 04/03/2024 07:05:16 81.22, -4.58 82.87 1.05 10
11 04/05/2024 22:27:04 -81.22, -55.19 98.14 04/05/2024 22:27:14 -81.22, -55.10 98.16 1.49 10



Historial Predications of SNOs between NOAA-20 and AQUA
